Total_Precipitation_Accumulation
0.01 0.01 0.01 0.01 0.01 0.00 0.00 0.00 0.00 0.00 0.00 0.00 0.00 0.00 0.00 0.00 0.00 0.00 0.00 0.00 0.00 0.01 0.02 0.03 0.05 0.06 0.09 0.12 0.15 0.17 0.15 0.14 0.14 0.14 0.14 0.14 0.14 0.15 0.15 0.16 0.17 0.18 0.19
0.01 0.01 0.01 0.01 0.01 0.00 0.00 0.00 0.00 0.00 0.00 0.00 0.00 0.00 0.00 0.00 0.00 0.00 0.00 0.00 0.00 0.01 0.01 0.02 0.05 0.08 0.12 0.15 0.19 0.21 0.19 0.17 0.16 0.16 0.16 0.16 0.17 0.17 0.17 0.18 0.18 0.19 0.21
0.01 0.01 0.01 0.01 0.01 0.00 0.00 0.00 0.00 0.00 0.00 0.00 0.00 0.01 0.00 0.00 0.00 0.00 0.00 0.00 0.00 0.01 0.00 0.02 0.05 0.09 0.12 0.15 0.20 0.23 0.23 0.22 0.22 0.21 0.22 0.22 0.22 0.21 0.21 0.22 0.22 0.23 0.24
0.02 0.02 0.01 0.01 0.01 0.01 0.01 0.01 0.01 0.01 0.01 0.02 0.01 0.01 0.01 0.00 0.00 0.00 0.00 0.00 0.00 0.01 0.00 0.01 0.04 0.07 0.10 0.14 0.20 0.26 0.30 0.28 0.25 0.24 0.24 0.25 0.26 0.27 0.28 0.30 0.31 0.31 0.30
0.07 0.05 0.03 0.02 0.03 0.03 0.02 0.02 0.02 0.02 0.02 0.01 0.01 0.01 0.00 0.00 0.00 0.00 0.00 0.00 0.00 0.00 0.01 0.01 0.01 0.02 0.05 0.09 0.15 0.25 0.35 0.35 0.30 0.26 0.25 0.25 0.26 0.28 0.31 0.35 0.39 0.41 0.43
0.16 0.14 0.10 0.08 0.07 0.06 0.04 0.03 0.02 0.02 0.02 0.02 0.02 0.01 0.01 0.01 0.01 0.01 0.01 0.01 0.01 0.01 0.01 0.01 0.01 0.01 0.02 0.05 0.09 0.16 0.25 0.31 0.33 0.31 0.30 0.30 0.30 0.31 0.33 0.37 0.42 0.47 0.54
0.31 0.25 0.20 0.17 0.13 0.10 0.08 0.07 0.07 0.06 0.04 0.04 0.04 0.03 0.01 0.01 0.01 0.01 0.01 0.01 0.01 0.02 0.02 0.02 0.02 0.02 0.03 0.04 0.07 0.10 0.14 0.20 0.28 0.33 0.35 0.34 0.35 0.36 0.40 0.44 0.49 0.55 0.62
0.46 0.38 0.30 0.28 0.25 0.19 0.15 0.15 0.15 0.11 0.09 0.09 0.11 0.12 0.07 0.03 0.03 0.03 0.03 0.03 0.03 0.03 0.03 0.03 0.03 0.04 0.05 0.05 0.05 0.07 0.10 0.14 0.22 0.32 0.40 0.43 0.45 0.49 0.54 0.62 0.69 0.73 0.77
0.64 0.56 0.48 0.43 0.39 0.34 0.28 0.28 0.27 0.25 0.25 0.24 0.23 0.28 0.25 0.15 0.10 0.06 0.05 0.05 0.04 0.03 0.03 0.03 0.04 0.05 0.05 0.05 0.06 0.06 0.09 0.13 0.18 0.28 0.39 0.49 0.56 0.65 0.75 0.85 0.90 0.95 1.00
0.80 0.72 0.66 0.62 0.57 0.50 0.45 0.46 0.47 0.48 0.47 0.41 0.36 0.35 0.36 0.32 0.32 0.21 0.09 0.07 0.06 0.05 0.05 0.06 0.06 0.06 0.07 0.08 0.10 0.13 0.17 0.22 0.29 0.36 0.48 0.64 0.79 0.95 1.11 1.17 1.22 1.27 1.26
0.79 0.77 0.75 0.73 0.71 0.69 0.69 0.70 0.67 0.66 0.64 0.59 0.54 0.50 0.49 0.45 0.41 0.42 0.27 0.15 0.13 0.13 0.12 0.11 0.10 0.12 0.14 0.15 0.17 0.23 0.31 0.37 0.45 0.55 0.73 0.93 1.09 1.28 1.47 1.59 1.64 1.63 1.56
0.86 0.81 0.83 0.83 0.85 0.82 0.80 0.81 0.82 0.83 0.84 0.81 0.77 0.69 0.65 0.60 0.53 0.58 0.53 0.36 0.30 0.24 0.21 0.21 0.21 0.22 0.22 0.23 0.27 0.34 0.37 0.41 0.49 0.61 0.82 1.05 1.21 1.38 1.54 1.68 1.78 1.76 1.73
0.77 0.76 0.82 0.86 0.89 0.90 0.91 0.91 0.89 0.88 0.93 0.96 0.95 0.91 0.86 0.79 0.73 0.76 0.79 0.65 0.52 0.39 0.35 0.35 0.36 0.36 0.36 0.37 0.38 0.41 0.40 0.44 0.51 0.61 0.78 0.99 1.06 1.04 1.06 1.17 1.38 1.52 1.59
0.77 0.80 0.82 0.81 0.81 0.82 0.84 0.84 0.83 0.81 0.84 0.86 0.88 0.87 0.86 0.81 0.81 0.84 0.90 0.96 0.87 0.66 0.56 0.52 0.51 0.49 0.48 0.45 0.44 0.46 0.39 0.45 0.45 0.50 0.60 0.69 0.75 0.76 0.78 0.85 0.97 1.09 1.18
0.70 0.71 0.72 0.71 0.68 0.67 0.68 0.69 0.68 0.67 0.68 0.69 0.71 0.74 0.76 0.73 0.75 0.77 0.84 0.99 1.12 0.99 0.73 0.57 0.53 0.51 0.51 0.50 0.52 0.49 0.43 0.48 0.47 0.46 0.47 0.48 0.49 0.51 0.54 0.60 0.69 0.77 0.85
0.60 0.60 0.59 0.57 0.55 0.54 0.53 0.53 0.51 0.50 0.51 0.51 0.53 0.56 0.59 0.60 0.64 0.68 0.74 0.81 0.95 1.05 0.89 0.60 0.51 0.48 0.49 0.46 0.48 0.43 0.39 0.45 0.43 0.43 0.43 0.44 0.44 0.42 0.44 0.48 0.54 0.59 0.64
0.52 0.51 0.51 0.49 0.45 0.42 0.39 0.38 0.35 0.36 0.37 0.38 0.40 0.44 0.47 0.50 0.53 0.56 0.60 0.65 0.72 0.82 0.83 0.60 0.49 0.46 0.44 0.39 0.37 0.36 0.32 0.31 0.31 0.36 0.38 0.39 0.41 0.42 0.43 0.44 0.46 0.51 0.54
0.48 0.45 0.45 0.43 0.40 0.37 0.34 0.32 0.32 0.31 0.31 0.31 0.31 0.34 0.36 0.39 0.44 0.48 0.53 0.55 0.57 0.61 0.68 0.60 0.44 0.38 0.34 0.30 0.28 0.27 0.26 0.26 0.25 0.29 0.33 0.37 0.42 0.43 0.42 0.42 0.42 0.45 0.48
0.37 0.34 0.33 0.33 0.31 0.30 0.29 0.29 0.28 0.29 0.29 0.29 0.30 0.33 0.36 0.40 0.44 0.46 0.48 0.50 0.50 0.52 0.58 0.61 0.44 0.34 0.30 0.27 0.26 0.22 0.23 0.23 0.21 0.24 0.28 0.29 0.32 0.34 0.37 0.40 0.41 0.42 0.44
0.30 0.28 0.26 0.27 0.27 0.25 0.23 0.24 0.25 0.26 0.29 0.31 0.33 0.36 0.38 0.38 0.38 0.38 0.38 0.39 0.43 0.45 0.45 0.49 0.45 0.35 0.30 0.25 0.24 0.22 0.22 0.20 0.21 0.23 0.26 0.27 0.29 0.31 0.32 0.32 0.33 0.34 0.36
0.23 0.26 0.25 0.25 0.25 0.25 0.24 0.25 0.27 0.30 0.34 0.37 0.38 0.38 0.37 0.36 0.32 0.30 0.31 0.32 0.34 0.37 0.44 0.51 0.49 0.39 0.30 0.27 0.24 0.24 0.29 0.28 0.26 0.24 0.25 0.25 0.29 0.33 0.36 0.40 0.42 0.42 0.43
0.25 0.28 0.28 0.29 0.31 0.33 0.40 0.37 0.33 0.36 0.39 0.38 0.35 0.31 0.28 0.27 0.24 0.25 0.25 0.26 0.31 0.39 0.47 0.54 0.52 0.44 0.32 0.31 0.34 0.42 0.49 0.55 0.47 0.29 0.34 0.41 0.46 0.53 0.53 0.54 0.60 0.63 0.63
0.34 0.40 0.43 0.43 0.47 0.53 0.55 0.44 0.37 0.32 0.32 0.31 0.28 0.24 0.21 0.19 0.18 0.15 0.14 0.18 0.21 0.29 0.37 0.41 0.37 0.27 0.25 0.26 0.41 0.53 0.57 0.63 0.55 0.40 0.48 0.55 0.51 0.53 0.52 0.55 0.64 0.64 0.60
0.47 0.53 0.56 0.55 0.54 0.55 0.53 0.43 0.35 0.27 0.22 0.19 0.17 0.14 0.12 0.11 0.11 0.14 0.19 0.22 0.16 0.12 0.13 0.14 0.15 0.15 0.20 0.26 0.42 0.61 0.68 0.70 0.56 0.44 0.43 0.50 0.43 0.40 0.39 0.41 0.49 0.50 0.47
0.52 0.53 0.51 0.48 0.44 0.42 0.38 0.30 0.25 0.21 0.17 0.14 0.12 0.10 0.11 0.09 0.11 0.21 0.29 0.27 0.15 0.06 0.05 0.08 0.13 0.15 0.17 0.21 0.29 0.50 0.69 0.80 0.65 0.39 0.32 0.39 0.39 0.39 0.37 0.34 0.37 0.42 0.42
0.51 0.44 0.39 0.33 0.29 0.27 0.26 0.21 0.18 0.15 0.13 0.11 0.10 0.08 0.08 0.09 0.16 0.27 0.28 0.25 0.14 0.06 0.08 0.08 0.06 0.05 0.05 0.06 0.17 0.36 0.75 1.14 0.93 0.59 0.33 0.43 0.47 0.54 0.63 0.36 0.31 0.35 0.35